TimeEST,TemperatureF,Dew PointF,Humidity,Sea Level PressureIn,VisibilityMPH,Wind Direction,Wind SpeedMPH,Gust SpeedMPH,PrecipitationIn,Events,Conditions,WindDirDegrees,DateUTC
12:15 AM,62.6,62.6,100,30.20,10.0,SSE,4.6,-,N/A,,Mostly Cloudy,150,2012-11-13 05:15:00
12:35 AM,62.6,62.6,100,30.19,10.0,South,4.6,-,N/A,,Scattered Clouds,170,2012-11-13 05:35:00
12:55 AM,62.6,62.6,100,30.18,10.0,South,4.6,-,N/A,,Clear,170,2012-11-13 05:55:00
1:15 AM,62.6,62.6,100,30.17,10.0,SE,3.5,-,N/A,,Clear,140,2012-11-13 06:15:00
1:35 AM,62.6,62.6,100,30.16,10.0,SE,3.5,-,N/A,,Clear,140,2012-11-13 06:35:00
1:55 AM,62.6,62.6,100,30.17,10.0,Calm,Calm,-,N/A,,Clear,0,2012-11-13 06:55:00
2:35 AM,60.8,60.8,100,30.18,7.0,Calm,Calm,-,N/A,,Mostly Cloudy,0,2012-11-13 07:35:00
2:55 AM,60.8,60.8,100,30.18,7.0,WNW,6.9,-,N/A,,Overcast,290,2012-11-13 07:55:00
3:15 AM,62.6,62.6,100,30.18,10.0,Calm,Calm,-,N/A,,Overcast,0,2012-11-13 08:15:00
3:35 AM,60.8,60.8,100,30.18,7.0,Calm,Calm,-,N/A,,Overcast,0,2012-11-13 08:35:00
3:55 AM,60.8,60.8,100,30.18,7.0,Calm,Calm,-,N/A,,Overcast,0,2012-11-13 08:55:00
4:15 AM,60.8,60.8,100,30.18,4.0,Calm,Calm,-,N/A,,Scattered Clouds,0,2012-11-13 09:15:00
4:55 AM,59.0,59.0,100,30.18,1.2,Calm,Calm,-,N/A,,Mostly Cloudy,0,2012-11-13 09:55:00
5:15 AM,59.0,59.0,100,30.18,3.0,Calm,Calm,-,N/A,,Overcast,0,2012-11-13 10:15:00
5:35 AM,59.0,59.0,100,30.18,7.0,Calm,Calm,-,N/A,,Overcast,0,2012-11-13 10:35:00
5:55 AM,59.0,59.0,100,30.19,7.0,Calm,Calm,-,N/A,,Overcast,0,2012-11-13 10:55:00
6:15 AM,59.0,59.0,100,30.19,7.0,Calm,Calm,-,N/A,,Overcast,0,2012-11-13 11:15:00
6:55 AM,59.0,59.0,100,30.20,2.0,Calm,Calm,-,N/A,,Overcast,0,2012-11-13 11:55:00
7:15 AM,59.0,59.0,100,30.20,5.0,Calm,Calm,-,N/A,,Overcast,0,2012-11-13 12:15:00
7:35 AM,59.0,59.0,100,30.21,7.0,Calm,Calm,-,N/A,,Mostly Cloudy,0,2012-11-13 12:35:00
7:55 AM,60.8,60.8,100,30.22,7.0,Calm,Calm,-,N/A,,Mostly Cloudy,0,2012-11-13 12:55:00
8:15 AM,60.8,60.8,100,30.22,5.0,Calm,Calm,-,N/A,,Drizzle,0,2012-11-13 13:15:00
8:35 AM,62.6,62.6,100,30.22,7.0,Calm,Calm,-,N/A,,Overcast,0,2012-11-13 13:35:00
8:55 AM,62.6,62.6,100,30.23,5.0,Calm,Calm,-,N/A,,Overcast,0,2012-11-13 13:55:00
9:15 AM,64.4,64.4,100,30.24,7.0,Calm,Calm,-,N/A,,Overcast,0,2012-11-13 14:15:00
9:35 AM,64.4,62.6,94,30.24,7.0,NNW,6.9,-,N/A,,Overcast,340,2012-11-13 14:35:00
9:55 AM,62.6,62.6,100,30.25,7.0,NNW,9.2,-,N/A,,Overcast,340,2012-11-13 14:55:00
10:15 AM,60.8,57.2,88,30.26,7.0,North,16.1,-,N/A,,Overcast,10,2012-11-13 15:15:00
10:35 AM,60.8,53.6,77,30.27,10.0,NNE,11.5,16.1,N/A,,Overcast,20,2012-11-13 15:35:00
10:55 AM,59.0,51.8,77,30.27,10.0,North,10.4,-,N/A,,Overcast,350,2012-11-13 15:55:00
11:15 AM,59.0,51.8,77,30.27,10.0,NNW,9.2,-,N/A,,Overcast,340,2012-11-13 16:15:00
11:35 AM,57.2,50.0,77,30.27,10.0,North,11.5,16.1,N/A,,Overcast,350,2012-11-13 16:35:00
11:55 AM,57.2,50.0,77,30.27,10.0,North,12.7,17.3,N/A,,Overcast,350,2012-11-13 16:55:00
12:15 PM,55.4,50.0,82,30.26,10.0,NNW,6.9,-,N/A,Rain,Light Rain,340,2012-11-13 17:15:00
12:35 PM,55.4,50.0,82,30.26,10.0,North,6.9,-,N/A,Rain,Rain,350,2012-11-13 17:35:00
12:55 PM,53.6,51.8,94,30.25,10.0,North,8.1,-,N/A,Rain,Rain,360,2012-11-13 17:55:00
1:15 PM,51.8,51.8,100,30.25,10.0,North,11.5,16.1,N/A,,Overcast,360,2012-11-13 18:15:00
1:35 PM,53.6,50.0,88,30.24,10.0,North,15.0,-,N/A,,Overcast,350,2012-11-13 18:35:00
1:55 PM,51.8,50.0,94,30.25,10.0,North,9.2,17.3,N/A,,Overcast,360,2012-11-13 18:55:00
2:15 PM,51.8,50.0,94,30.24,10.0,North,12.7,17.3,N/A,,Overcast,350,2012-11-13 19:15:00
2:35 PM,51.8,50.0,94,30.25,10.0,North,10.4,-,N/A,,Overcast,350,2012-11-13 19:35:00
2:55 PM,51.8,50.0,94,30.25,10.0,NNE,9.2,16.1,N/A,,Overcast,20,2012-11-13 19:55:00
3:15 PM,51.8,50.0,94,30.25,10.0,North,9.2,16.1,N/A,,Overcast,350,2012-11-13 20:15:00
3:35 PM,51.8,50.0,94,30.26,10.0,North,10.4,-,N/A,,Overcast,360,2012-11-13 20:35:00
3:55 PM,51.8,50.0,94,30.26,10.0,North,9.2,-,N/A,,Overcast,360,2012-11-13 20:55:00
4:15 PM,51.8,50.0,94,30.27,10.0,North,6.9,-,N/A,,Overcast,10,2012-11-13 21:15:00
4:35 PM,51.8,50.0,94,30.27,5.0,North,5.8,16.1,N/A,Rain,Rain,10,2012-11-13 21:35:00
4:55 PM,51.8,51.8,100,30.27,7.0,North,5.8,-,0.01,,Drizzle,360,2012-11-13 21:55:00
5:15 PM,50.0,50.0,100,30.27,7.0,North,5.8,-,0.01,Rain,Rain,10,2012-11-13 22:15:00
5:35 PM,50.0,50.0,100,30.27,10.0,North,8.1,-,0.01,,Light Drizzle,10,2012-11-13 22:35:00
5:55 PM,50.0,50.0,100,30.28,10.0,North,9.2,-,0.01,Rain,Rain,10,2012-11-13 22:55:00
6:15 PM,51.8,51.8,100,30.28,10.0,North,9.2,-,N/A,,Drizzle,10,2012-11-13 23:15:00
6:55 PM,50.0,50.0,100,30.30,10.0,North,11.5,18.4,0.01,,Overcast,10,2012-11-13 23:55:00
7:15 PM,50.0,50.0,100,30.31,10.0,North,9.2,-,N/A,,Overcast,10,2012-11-14 00:15:00
7:35 PM,50.0,50.0,100,30.32,10.0,North,8.1,-,N/A,,Overcast,10,2012-11-14 00:35:00
7:55 PM,50.0,50.0,100,30.32,10.0,North,11.5,-,N/A,,Overcast,10,2012-11-14 00:55:00
8:15 PM,50.0,50.0,100,30.32,10.0,NNE,10.4,16.1,N/A,,Overcast,30,2012-11-14 01:15:00
8:35 PM,50.0,50.0,100,30.33,10.0,NNE,15.0,18.4,N/A,,Overcast,30,2012-11-14 01:35:00
8:55 PM,48.2,48.2,100,30.34,10.0,NE,12.7,-,N/A,,Overcast,40,2012-11-14 01:55:00
9:15 PM,48.2,48.2,100,30.34,10.0,NNE,6.9,17.3,N/A,,Overcast,30,2012-11-14 02:15:00
9:35 PM,48.2,48.2,100,30.35,10.0,NNE,11.5,17.3,N/A,,Overcast,30,2012-11-14 02:35:00
9:55 PM,48.2,48.2,100,30.34,10.0,NNE,11.5,19.6,N/A,,Overcast,30,2012-11-14 02:55:00
10:15 PM,46.4,46.4,100,30.36,10.0,NNE,10.4,19.6,N/A,,Overcast,20,2012-11-14 03:15:00
10:35 PM,46.4,46.4,100,30.36,10.0,NNE,11.5,17.3,N/A,,Overcast,30,2012-11-14 03:35:00
10:55 PM,46.4,44.6,93,30.35,10.0,NNE,11.5,-,N/A,,Overcast,30,2012-11-14 03:55:00
11:15 PM,46.4,44.6,93,30.36,10.0,NNE,15.0,-,N/A,,Overcast,20,2012-11-14 04:15:00
11:35 PM,46.4,44.6,93,30.36,10.0,NNE,6.9,-,N/A,,Overcast,20,2012-11-14 04:35:00
11:55 PM,46.4,42.8,87,30.35,10.0,NNE,12.7,17.3,N/A,,Overcast,30,2012-11-14 04:55:00